Location: Hilton Head Island
(32.2163°N, 80.7526°W)
Time: 00:10:02
(UTC-05:00)

Vanguard 2 Rocket - Pass Details

Date: 18 February 2026
Orbit: 553 x 3287 km, 32.9° (Epoch: 5 March)

Event Time Altitude Azimuth Distance (km) Brightness Sun altitude
Rises 14:50:52 0° 267° (W) 7,140 12.0 35.9°
Reaches altitude 10° 14:56:01 10° 268° (W) 5,924 11.7 35.1°
Maximum altitude 15:13:29 87° 359° (N) 2,159 9.3 32.5°
Drops below altitude 10° 15:23:26 10° 89° (E) 3,602 9.6 31.0°
Sets 15:25:48 0° 90° (E) 4,301 10.0 30.6°
